Tracking 19909 objects as of 22-Oct-2019
HD Live streaming from Space Station
objects crossing your sky now

COSMOS 1275 DEB

Track COSMOS 1275 DEB now!
10-day predictions


NORAD ID: 12673
Int'l Code: 1981-053AD
Perigee: 859.9 km
Apogee: 932.4 km
Inclination: 82.9 °
Period: 102.8 minutes
Semi major axis: 7267 km
RCS: 0.1532 m2 (medium)
Launch date: June 4, 1981
Source: Commonwealth of Independent States (former USSR) (CIS)
Launch site: PLESETSK MISSILE AND SPACE COMPLEX (PKMTR)

Note: This is SATELLITE DEBRIS
aabbcc
Your satellite tracking list
Your tracking list is empty




NASA's NSSDC Master Catalog

Two Line Element Set (TLE):
1 12673U 81053AD  19295.39574147  .00000697  00000-0  44677-3 0  9995
2 12673  82.8526 259.1502 0049859 122.1180  36.0731 14.01380903933932
Source of the keplerian elements: AFSPC